Regional Weather Roundup
Issued by NWS

Home | Current Version | Previous Version | Text Only | Print | Product List | Glossary Off
Versions: 1 2 3 4 5 6 7 8 9 10 11 12 13 14 15 16 17 18 19 20 21 22 23 24 25 26 27 28 29 30 31 32 33 34 35 36 37 38 39 40 41 42 43 44 45 46 47 48 49 50

000
ASUS44 KMEG 061610
RWRTN
TENNESSEE HOURLY STATE WEATHER ROUNDUP
NATIONAL WEATHER SERVICE MEMPHIS TN
1100 AM CDT WED MAY 06 2015

TNZ002-004-019-021-049-052-054-088>092-061700-
WEST TENNESSEE

CITY           SKY/WX    TMP DP  RH WIND       PRES   REMARKS
MEMPHIS INTL   MOSUNNY   81  56  42 S9G16     30.16F
NWS MEMPHIS      N/A     82 N/A N/A MISG        N/A
JACKSON        SUNNY     80  57  45 S8        30.19S
DYERSBURG      SUNNY     81  50  34 S8        30.18S
PARIS          MOSUNNY   77  55  47 S6        30.20S
LEXINGTON      SUNNY     79  54  41 S8        30.20S
$$

TNZ008-025-027-028-033-062-065-066-061700-
NORTH MIDDLE TENNESSEE

CITY           SKY/WX    TMP DP  RH WIND       PRES   REMARKS
NASHVILLE      MOSUNNY   81  54  39 VRB5      30.22S
CLARKSVILLE    PTSUNNY   77  57  50 SW8       30.21R
SMYRNA         MOSUNNY   80  56  43 VRB3      30.22S
COOKEVILLE     MOSUNNY   81  57  44 CALM      30.22F
CROSSVILLE     SUNNY     76  50  40 E3        30.26S
$$

TNZ061-075-076-078-094-096-097-061700-
SOUTH MIDDLE TENNESSEE

CITY           SKY/WX    TMP DP  RH WIND       PRES   REMARKS
FAYETTEVILLE     N/A     75  52  43 VRB5      30.23S
TULLAHOMA      SUNNY     77  50  38 S5        30.24S
WINCHESTER     SUNNY     79  54  41 SE7       30.23S
MCMINNVILLE    SUNNY     79  55  44 VRB3      30.23S
COLUMBIA       MOSUNNY   81  57  44 SW8       30.21S
SHELBYVILLE    SUNNY     81  61  50 S6        30.23S
$$

TNZ017-018-042-046-047-061700-
NORTHEAST TENNESSEE

CITY           SKY/WX    TMP DP  RH WIND       PRES   REMARKS
TRI CITIES     MOSUNNY   76  55  48 CALM      30.25F
$$

TNZ012-013-036-069-073-074-061700-
CENTRAL EAST TENNESSEE

CITY           SKY/WX    TMP DP  RH WIND       PRES   REMARKS
KNOXVILLE      MOSUNNY   78  55  44 N5        30.22F
OAK RIDGE      SUNNY     79  54  41 VRB3      30.23F
GATLINBURG     SUNNY     79  55  44 NE8       30.22F
MORRISTOWN     SUNNY     77  55  47 W6        30.25S
$$

TNZ083-085-099-061700-
SOUTHEAST TENNESSEE

CITY           SKY/WX    TMP DP  RH WIND       PRES   REMARKS
CHATTANOOGA    MOSUNNY   78  53  41 VRB3      30.23S
$$

SKY/WX REPORTED AS FAIR MEANS FEW OR NO CLOUDS BELOW
12 THOUSAND FEET.




USA.gov is the U.S. government's official web portal to all federal, state and local government web resources and services.